Billard Verband Uckermark e.V.

Gerswalder SV

Auf Facebook teilen
1980
1041
2018/2019
14
32789
799,73
1041 / 581
Name Spiele Gesamtpuntke Durchschnitt
Matthias Schauseil 20 5008 250,40
Marco Rieger 17 4163 244,88
Wolfgang Klaffki 20 4856 242,80
Mario Zingelmann 20 4021 201,05
Dirk Collin 16 3171 198,19
Mario Krause 14 2590 185,00
Martin Henselin 11 1869 169,91
Wolfgang Höfener 11 1775 161,36
Karl-Heinz Trettin 12 1884 157,00
Ralf Henselin 10 1546 154,60
Jörg Ladewich 9 1363 151,44
Burkhard Bechly 4 543 135,75
Udo Denkmann000,00
Ernst Parpat000,00
Spieltag Datum Heim Gast Points
1 07.09.2018 Gerswalder SV I Pool & Kegel Templin 980:928
1 07.09.2018 SG Milmersdorf I Gerswalder SV II 848:692
2 14.09.2018 SG Milmersdorf II Gerswalder SV I 658:899
2 14.09.2018 Gerswalder SV II Lychener SV 90 I 581:881
3 21.09.2018 SV Boitzenburg I Gerswalder SV II 664:655
4 28.09.2018 SV R/W Günterberg I Gerswalder SV II 887:637
4 28.09.2018 Gerswalder SV I SV R/W Günterberg II 967:564
5 05.10.2018 SV Boitzenburg II Gerswalder SV I 533:945
5 05.10.2018 Gerswalder SV II SG Greiffenberg I 713:840
6 19.10.2018 Lychener SV 90 II Gerswalder SV I 686:914
6 19.10.2018 Gerswalder SV II Pool & Kegel Templin 685:737
7 02.10.2018 Gerswalder SV I Gerswalder SV II 926:725
8 02.11.2018 Gerswalder SV II SV R/W Günterberg II 633:775
8 02.11.2018 Lychener SV 90 I Gerswalder SV I 984:943
9 16.11.2018 Gerswalder SV I SG Greiffenberg II 955:514
9 16.11.2018 SG Milmersdorf II Gerswalder SV II 703:624
10 23.11.2018 Gerswalder SV I SV Boitzenburg I 985:800
11 30.11.2018 SG Greiffenberg I Gerswalder SV I 727:892
11 30.11.2018 Gerswalder SV II SG Greiffenberg II 713:682
12 10.12.2018 Gerswalder SV II Lychener SV 90 II 674:756
12 07.12.2018 SG Milmersdorf I Gerswalder SV I 845:855
13 14.12.2018 SV Boitzenburg II Gerswalder SV II 585:789
13 21.12.2018 Gerswalder SV I SV R/W Günterberg I 926:907
14 11.01.2019 Pool & Kegel Templin Gerswalder SV I 867:863
14 11.01.2019 Gerswalder SV II SG Milmersdorf I 630:783
15 18.01.2019 Gerswalder SV I SG Milmersdorf II 1041:701
15 18.01.2019 Lychener SV 90 I Gerswalder SV II 886:621
16 25.01.2019 Gerswalder SV II SV Boitzenburg I 727:788
17 01.02.2019 SV R/W Günterberg II Gerswalder SV I 584:843
17 01.02.2019 Gerswalder SV II SV R/W Günterberg I 671:891
18 15.02.2019 Gerswalder SV I SV Boitzenburg II 975:624
18 15.02.2019 SG Greiffenberg I Gerswalder SV II 795:698
19 22.02.2019 Gerswalder SV I Lychener SV 90 II 955:792
19 22.02.2019 Pool & Kegel Templin Gerswalder SV II 764:695
20 01.03.2019 Gerswalder SV II Gerswalder SV I 657:1011
21 08.03.2019 SV R/W Günterberg II Gerswalder SV II 621:634
22 15.03.2019 Gerswalder SV II SG Milmersdorf II 669:769
22 15.03.2019 SG Greiffenberg II Gerswalder SV I 547:853
23 22.03.2019 SV Boitzenburg I Gerswalder SV I 792:938